Regional Weather Roundup
Issued by NWS

Home | Current Version | Previous Version | Text Only | Print | Product List | Glossary Off
Versions: 1 2 3 4 5 6 7 8 9 10 11 12 13 14 15 16 17 18 19 20 21 22 23 24 25 26 27 28 29 30 31 32 33 34 35 36 37 38 39 40 41 42 43 44 45 46 47 48 49 50

000
ASUS45 KPSR 251310
RWRAZ

ARIZONA REGIONAL HOURLY WEATHER ROUNDUP
NATIONAL WEATHER SERVICE PHOENIX AZ
600 AM MST FRI JUL 25 2014

NOTE: FAIR INDICATES FEW OR NO CLOUDS BELOW 12,000 FEET WITH NO
SIGNIFICANT WEATHER AND/OR OBSTRUCTIONS TO VISIBILITY.

AZZ001>003-036-251400-
NORTHWEST ARIZONA

CITY           SKY/WX    TMP DP  RH WIND       PRES   REMARKS
BULLHEAD CITY  PTCLDY    91  55  29 CALM      29.78R
KINGMAN        PTCLDY    79  53  40 SE12      30.01R
$$

AZZ004>008-015-016-018-251400-
NORTH CENTRAL ARIZONA

CITY           SKY/WX    TMP DP  RH WIND       PRES   REMARKS
GRAND CANYON   PTCLDY    55  53  93 CALM      30.30R
WILLIAMS       MOCLDY    57  46  67 SE9       30.36R
PRESCOTT       PTCLDY    67  51  56 S7        30.17R
FLAGSTAFF      CLEAR     50  46  86 CALM      30.34R
PAYSON         CLEAR     70  45  40 CALM      30.21S
PAGE           CLOUDY    82  50  32 S6        30.09R
$$

AZZ009>014-017-251400-
NORTHEAST ARIZONA

CITY           SKY/WX    TMP DP  RH WIND       PRES   REMARKS
WINSLOW        CLEAR     65  52  62 SE7       30.18R
SAINT JOHNS    CLEAR     64  49  57 S3        30.23R
WINDOW ROCK    CLEAR     56  45  66 CALM      30.33R
SHOW LOW       CLEAR     64  39  39 S13       30.31R
$$

AZZ023-251400-
GREATER PHOENIX AREA

CITY           SKY/WX    TMP DP  RH WIND       PRES   REMARKS
PHOENIX        MOCLDY    92  63  38 E6        29.87R
BUCKEYE          N/A     86  61  42 N6        29.87R
GLENDALE       PTCLDY    90  64  43 NE5       29.89
LUKE AFB       NOT AVBL
DEER VALLEY    CLEAR     87  59  38 E3        29.90R
SCOTTSDALE     CLEAR     88  63  43 CALM      29.92R
MESA-FALCON    CLEAR     90  61  37 E7        29.90R
MESA-GATEWAY   PTCLDY    86  61  42 E7        29.92R
CHANDLER       PTCLDY    86  64  48 E7        29.90
$$

AZZ027-028-251400-
SOUTHWEST MARICOPA COUNTY AND PINAL COUNTY

CITY           SKY/WX    TMP DP  RH WIND       PRES   REMARKS
CASA GRANDE    CLEAR     86  61  42 CALM      29.92R
$$

AZZ503-504-507>509-251400-
SOUTHEAST ARIZONA

CITY           SKY/WX    TMP DP  RH WIND       PRES   REMARKS
TUCSON         CLOUDY    83  65  54 S7        30.02R HAZE
DAVIS-MONTHAN  CLEAR     81  64  57 SE6       30.01S
RYAN FIELD       N/A     81  66  61 CALM      30.01
NOGALES        CLOUDY    71  63  75 E5        30.11R HAZE
SIERRA VISTA   PTCLDY    73  61  64 S5        30.17R DUST
DOUGLAS        CLOUDY    71  62  73 E3        30.13R
SAFFORD        CLEAR     75  43  31 CALM      30.02R
$$

AZZ020-021-025-026-031-251400-
SOUTHWEST ARIZONA

CITY           SKY/WX    TMP DP  RH WIND       PRES   REMARKS
YUMA           PTCLDY    90  66  45 SE17      29.78R
$$

CAZ031-033-041-043-047-048-061-251400-
SOUTHERN CALIFORNIA

CITY           SKY/WX    TMP DP  RH WIND       PRES   REMARKS
DOWNTOWN L.A.  CLOUDY    71  65  81 SE3       29.86S
L.A. AIRPORT   MOCLDY    71  64  78 SE10      29.87S
SAN DIEGO      CLOUDY    69  63  81 S3        29.88F
BURBANK        CLEAR     69  59  70 CALM      29.88S
ONTARIO        PTCLDY    70  60  70 W9        29.88S
RIVERSIDE      CLEAR     70  61  73 W6        29.89R
PALM SPRINGS   MOCLDY    91  45  20 N7        29.80R
EL CENTRO NAS  MOCLDY    87  75  67 E9        29.73R
IMPERIAL       CLEAR     88  74  63 E13       29.73R
BLYTHE         PTCLDY    92  63  38 S12       29.77R
NEEDLES        MOCLDY    96  54  24 CALM      29.79R
$$

NVZ020-UTZ003-251400-
SOUTHERN NEVADA-UTAH

CITY           SKY/WX    TMP DP  RH WIND       PRES   REMARKS
LAS VEGAS      PTCLDY    90  46  21 S12       29.82R
SALT LAKE CITY PTCLDY    64  48  56 S3        30.03R
$$

NMZ009-TXZ055-251400-
NEW MEXICO-WEST TEXAS

CITY           SKY/WX    TMP DP  RH WIND       PRES   REMARKS
ALBUQUERQUE    PTCLDY    72  42  34 SE6       30.22R
EL PASO        PTCLDY    77  52  41 CALM      30.13R
$$


........................KEY........................
SKY/WX - SKY CONDITION/WEATHER
TMP    - TEMPERATURE IN FAHRENHEIT
DP     - DEW POINT IN FAHRENHEIT
RH     - RELATIVE HUMIDITY IN PERCENT
WIND   - DIRECTION AND SPEED IN MILES PER HOUR (MPH)
VRB    - VARIABLE WIND DIRECTION
PRES   - MEAN SEA LEVEL PRESSURE IN INCHES OF MERCURY
         F - FALLING PRESSURE   R - RISING PRESSURE
         S - STEADY PRESSURE
VSB    - VISIBILITY IN MILES
HX     - HEAT INDEX IN FAHRENHEIT
WCI    - WIND CHILL INDEX IN FAHRENHEIT
TC     - TEMPERATURE IN CELSIUS WHICH IS ALSO KNOWN AS
         TEMPERATURE IN CENTIGRADE
AFB    - AIR FORCE BASE
         LUKE AFB IS LUKE AIR FORCE BASE
         DAVIS-MONTHAN IS DAVIS-MONTHAN AIR FORCE BASE
NAS    - NAVAL AIR STATION
         EL CENTRO NAS IS EL CENTRO NAVAL AIR STATION
N/A    - NOT AVAILABLE


USA.gov is the U.S. government's official web portal to all federal, state and local government web resources and services.